�N����,����,�~����,�C��,���x,�C��,����,���ϕ���,�ő�u�ԕ���,�ő厞����,���˗�,�I�_���x,�n�����x,�ő啗���N��,DTYPE
"18/05/18","00:10",0.0,20.2,91.0,1003.8,323.6,1.1,1.4,338.1,0.00,18.7,20.2,"00:05:28",1
"18/05/18","00:20",0.0,20.0,91.6,1004.1,296.3,0.8,1.1,307.0,0.00,18.6,20.2,"00:19:28",1
"18/05/18","00:30",0.0,20.0,91.7,1004.1,285.1,0.8,1.2,286.3,0.00,18.6,20.3,"00:20:32",1
"18/05/18","00:40",0.0,20.0,91.8,1004.1,292.1,1.0,1.7,310.3,0.00,18.7,20.2,"00:39:44",1
"18/05/18","00:50",0.0,19.8,91.8,1003.8,304.3,1.0,1.3,327.0,0.00,18.5,20.1,"00:48:00",1
"18/05/18","01:00",0.0,19.7,92.1,1003.6,291.2,1.0,1.4,303.3,0.00,18.4,20.0,"00:55:52",1
"18/05/18","01:10",0.0,19.7,92.2,1003.6,283.0,0.8,1.1,283.3,0.00,18.4,20.0,"01:00:08",1
"18/05/18","01:20",0.0,19.6,92.3,1003.6,306.8,0.8,1.4,316.4,0.00,18.4,19.8,"01:16:16",1
"18/05/18","01:30",0.0,19.5,92.9,1003.6,315.4,1.1,1.4,320.2,0.00,18.4,19.9,"01:21:36",1
"18/05/18","01:40",0.0,19.4,93.2,1003.4,300.7,0.7,1.0,305.4,0.00,18.3,19.9,"01:38:08",1
"18/05/18","01:50",0.0,19.2,93.3,1003.4,307.3,0.8,1.2,317.5,0.00,18.1,19.9,"01:44:24",1
"18/05/18","02:00",0.0,19.2,93.5,1003.1,292.1,0.8,1.4,319.3,0.00,18.2,19.8,"01:58:56",1
"18/05/18","02:10",0.0,19.1,93.8,1003.1,292.0,1.0,1.2,303.6,0.00,18.1,19.7,"02:04:08",1
"18/05/18","02:20",0.0,19.2,94.1,1003.1,285.0,1.0,1.2,293.2,0.00,18.3,19.7,"02:10:56",1
"18/05/18","02:30",0.0,19.1,94.0,1003.1,285.2,0.8,1.2,299.0,0.00,18.2,19.7,"02:21:36",1
"18/05/18","02:40",0.0,19.0,94.1,1002.9,299.2,1.0,1.2,317.7,0.00,18.1,19.7,"02:36:16",1
"18/05/18","02:50",0.0,18.9,94.1,1003.1,308.6,1.1,1.4,315.1,0.00,18.0,19.8,"02:45:36",1
"18/05/18","03:00",0.0,18.8,94.4,1002.9,305.3,1.0,1.6,324.8,0.00,17.9,19.4,"02:55:20",1
"18/05/18","03:10",0.0,18.9,94.7,1003.1,292.0,1.0,1.7,319.3,0.00,18.1,19.5,"03:02:16",1
"18/05/18","03:20",0.0,18.8,94.7,1002.9,303.7,1.0,1.2,324.3,0.00,18.0,19.6,"03:15:12",1
"18/05/18","03:30",0.0,18.6,94.6,1003.1,289.7,0.8,1.0,282.8,0.00,17.8,19.7,"03:25:36",1
"18/05/18","03:40",0.0,18.6,95.3,1002.6,296.1,0.8,1.3,330.6,0.00,17.9,19.4,"03:30:40",1
"18/05/18","03:50",0.0,18.7,94.9,1002.9,288.4,1.0,1.2,302.5,0.00,17.9,19.3,"03:48:56",1
"18/05/18","04:00",0.0,18.6,94.9,1002.9,293.3,0.8,1.6,334.0,0.00,17.8,19.3,"03:59:12",1
"18/05/18","04:10",0.0,18.6,95.2,1003.1,325.9,1.3,1.7,320.0,0.00,17.9,19.4,"04:08:00",1
"18/05/18","04:20",0.0,18.4,95.5,1002.6,312.3,1.1,1.7,327.0,0.00,17.7,19.3,"04:10:56",1
"18/05/18","04:30",0.0,18.5,95.7,1002.6,298.6,1.0,1.3,301.6,0.00,17.8,19.3,"04:29:12",1
"18/05/18","04:40",0.0,18.5,95.6,1003.1,302.6,1.1,1.6,321.2,0.00,17.8,19.2,"04:38:00",1
"18/05/18","04:50",0.0,18.6,95.7,1002.6,301.0,1.1,1.7,318.6,0.00,17.9,19.2,"04:48:56",1
"18/05/18","05:00",0.0,18.5,95.4,1002.9,319.0,1.2,1.4,321.0,0.00,17.8,19.2,"04:51:20",1
"18/05/18","05:10",0.0,18.5,95.7,1002.9,322.2,1.2,1.6,332.3,0.00,17.8,19.0,"05:00:56",1
"18/05/18","05:20",0.0,18.6,96.1,1002.9,308.7,1.0,1.2,311.1,0.00,18.0,19.1,"05:11:20",1
"18/05/18","05:30",0.0,18.9,96.1,1002.9,287.8,0.6,0.9,280.4,0.00,18.3,19.0,"05:20:32",1
"18/05/18","05:40",0.0,19.1,96.0,1003.1,285.5,0.7,1.2,311.4,0.00,18.5,19.1,"05:33:44",1
"18/05/18","05:50",0.0,19.3,95.8,1003.4,288.1,0.7,1.0,304.0,0.00,18.7,19.0,"05:40:02",1
"18/05/18","06:00",0.0,19.6,95.6,1002.9,290.7,0.8,1.2,313.6,0.01,18.9,19.2,"05:54:48",1
"18/05/18","06:10",0.0,20.0,95.5,1003.4,305.4,0.8,1.3,310.2,0.02,19.3,19.3,"06:07:52",1
"18/05/18","06:20",0.0,20.1,95.2,1003.4,320.5,1.2,1.6,325.3,0.04,19.3,19.2,"06:10:24",1
"18/05/18","06:30",0.0,20.5,94.9,1003.1,312.2,0.8,1.7,338.9,0.05,19.7,19.3,"06:29:28",1
"18/05/18","06:40",0.0,20.5,94.1,1002.9,336.3,1.1,1.8,329.5,0.05,19.6,19.3,"06:30:02",1
"18/05/18","06:50",0.0,20.8,94.1,1003.1,322.6,1.2,1.8,333.4,0.06,19.9,19.2,"06:40:48",1
"18/05/18","07:00",0.0,21.2,93.3,1002.9,264.7,0.3,0.8,295.8,0.05,20.1,19.2,"06:50:24",1
"18/05/18","07:10",0.0,21.4,93.1,1003.1,292.2,1.0,1.7,333.9,0.06,20.3,19.4,"07:05:24",1
"18/05/18","07:20",0.0,21.6,92.0,1003.4,317.7,1.1,1.7,323.7,0.06,20.3,19.4,"07:10:16",1
"18/05/18","07:30",0.0,21.8,91.4,1002.9,292.4,0.7,1.4,325.2,0.05,20.4,19.5,"07:24:08",1
"18/05/18","07:40",0.0,22.0,91.0,1003.1,296.0,0.7,1.0,322.5,0.05,20.5,19.7,"07:37:36",1
"18/05/18","07:50",0.0,22.2,90.3,1002.9,259.4,0.6,1.0,246.7,0.05,20.6,19.7,"07:42:48",1
"18/05/18","08:00",0.0,22.3,89.2,1003.1,300.9,0.3,0.6,269.2,0.06,20.5,19.8,"07:50:08",1
"18/05/18","08:10",0.0,22.6,88.6,1002.6,333.2,1.0,1.7,331.5,0.07,20.7,19.8,"08:08:08",1
"18/05/18","08:20",0.0,22.7,87.3,1002.9,316.4,0.8,1.4,312.6,0.08,20.5,19.9,"08:12:00",1
"18/05/18","08:30",0.0,22.7,87.3,1002.9,311.8,1.0,1.6,338.4,0.10,20.5,19.8,"08:22:24",1
"18/05/18","08:40",0.0,22.8,85.9,1002.6,286.0,0.6,1.4,322.7,0.10,20.4,19.8,"08:39:20",1
"18/05/18","08:50",0.0,22.8,86.3,1002.4,224.5,0.5,1.0,233.3,0.10,20.4,19.7,"08:48:48",1
"18/05/18","09:00",0.0,23.2,86.1,1002.6,251.8,0.7,1.1,249.6,0.13,20.8,19.9,"08:52:08",1
"18/05/18","09:10",0.0,23.3,84.8,1002.2,247.9,0.7,1.4,242.2,0.14,20.6,20.2,"09:09:12",1
"18/05/18","09:20",0.0,23.6,83.6,1001.9,252.6,1.0,1.6,245.4,0.15,20.7,20.2,"09:12:16",1
"18/05/18","09:30",0.0,24.0,83.0,1001.9,269.0,0.7,1.2,287.9,0.17,21.0,20.3,"09:22:56",1
"18/05/18","09:40",0.0,24.2,81.2,1001.5,236.6,0.3,1.2,198.9,0.19,20.8,20.5,"09:35:12",1
"18/05/18","09:50",0.0,24.4,81.6,1001.7,220.1,0.5,1.3,203.4,0.19,21.1,20.5,"09:46:48",1
"18/05/18","10:00",0.0,24.6,81.3,1001.9,216.7,0.5,1.0,231.9,0.16,21.2,20.7,"09:52:08",1
"18/05/18","10:10",0.0,24.6,80.0,1001.5,269.0,0.7,1.8,229.9,0.12,21.0,20.7,"10:07:28",1
"18/05/18","10:20",0.0,24.9,79.2,1001.5,100.3,0.5,1.8,114.0,0.13,21.1,20.7,"10:14:00",1
"18/05/18","10:30",0.0,24.9,78.4,1001.5,13.7,0.6,2.0,342.7,0.12,20.9,20.9,"10:22:16",1
"18/05/18","10:40",0.0,25.5,77.9,1001.2,269.3,0.3,1.2,12.3,0.18,21.4,20.8,"10:38:32",1
"18/05/18","10:50",0.0,25.6,77.0,1000.8,20.8,0.6,1.9,17.4,0.21,21.3,21.0,"10:44:16",1
"18/05/18","11:00",0.0,26.0,75.1,1000.5,21.3,0.5,1.3,121.2,0.23,21.3,21.2,"10:54:08",1
"18/05/18","11:10",0.0,26.3,74.0,1000.5,105.2,0.6,1.3,126.8,0.23,21.3,21.3,"11:02:48",1
"18/05/18","11:20",0.0,26.0,75.5,1000.3,113.4,0.8,1.8,62.7,0.16,21.4,21.2,"11:10:48",1
"18/05/18","11:30",0.0,26.1,73.9,1000.5,159.7,0.5,1.4,314.5,0.13,21.1,21.4,"11:28:16",1
"18/05/18","11:40",0.0,26.1,75.4,1000.3,258.6,0.5,1.3,245.9,0.11,21.4,21.3,"11:35:04",1
"18/05/18","11:50",0.0,26.1,74.3,1000.3,311.4,0.5,1.3,346.4,0.12,21.2,21.7,"11:42:48",1
"18/05/18","12:00",0.0,26.6,73.1,1000.0,195.2,1.2,3.5,170.3,0.17,21.4,21.4,"11:55:04",1
"18/05/18","12:10",0.0,26.7,73.4,1000.3,209.0,1.3,3.3,201.9,0.19,21.6,21.5,"12:02:56",1
"18/05/18","12:20",0.0,26.6,72.6,1000.0,267.6,1.0,2.6,244.8,0.19,21.3,21.6,"12:14:24",1
"18/05/18","12:30",0.0,26.8,72.9,999.8,232.6,1.2,3.1,245.2,0.16,21.6,21.7,"12:28:08",1
"18/05/18","12:40",0.0,27.7,69.1,999.8,235.4,1.6,4.1,223.8,0.46,21.6,21.9,"12:34:08",1
"18/05/18","12:50",0.0,28.0,69.1,1000.3,195.7,1.8,6.5,211.0,0.53,21.8,22.0,"12:48:16",1
"18/05/18","13:00",0.0,27.3,69.2,1000.3,209.8,2.3,5.0,186.6,0.23,21.2,22.3,"12:59:04",1
"18/05/18","13:10",0.0,27.8,68.4,1000.3,208.9,2.3,5.4,230.6,0.37,21.5,22.5,"13:08:00",1
"18/05/18","13:20",0.0,27.5,70.9,1000.0,195.0,2.3,4.3,199.8,0.27,21.8,22.5,"13:12:56",1
"18/05/18","13:30",0.0,28.8,69.5,1000.0,195.0,2.8,5.1,222.1,0.45,22.7,22.6,"13:24:24",1
"18/05/18","13:40",0.0,28.9,67.4,1000.3,196.4,1.5,4.4,195.3,0.35,22.3,22.8,"13:31:28",1
"18/05/18","13:50",0.0,28.2,69.0,1000.3,196.9,2.1,4.2,198.5,0.36,22.0,23.0,"13:44:40",1
"18/05/18","14:00",0.0,28.3,67.0,1000.3,229.5,2.5,6.6,220.1,0.41,21.6,23.1,"13:56:08",1
"18/05/18","14:10",0.0,27.3,68.8,1000.3,225.7,2.2,5.6,232.4,0.12,21.1,23.0,"14:01:20",1
"18/05/18","14:20",0.0,27.4,71.1,999.3,237.7,1.5,3.2,192.0,0.15,21.7,23.1,"14:14:56",1
"18/05/18","14:30",0.0,27.3,71.6,999.6,220.3,1.7,4.1,218.2,0.19,21.8,23.2,"14:23:52",1
"18/05/18","14:40",0.0,26.9,71.7,999.3,210.2,1.2,3.4,212.6,0.13,21.4,23.0,"14:30:08",1
"18/05/18","14:50",0.0,27.0,72.1,999.1,280.5,0.8,3.6,10.7,0.12,21.6,23.3,"14:41:28",1
"18/05/18","15:00",0.0,27.2,72.3,998.9,293.9,0.5,2.0,244.5,0.13,21.8,23.2,"14:53:20",1
"18/05/18","15:10",0.0,27.2,72.2,998.4,292.7,1.2,2.9,233.1,0.17,21.8,22.9,"15:06:40",1
"18/05/18","15:20",0.0,27.0,71.9,998.4,303.1,1.0,2.2,351.3,0.12,21.5,23.1,"15:12:08",1
"18/05/18","15:30",0.0,27.2,72.3,998.2,346.3,1.2,2.4,333.8,0.15,21.8,23.2,"15:28:48",1
"18/05/18","15:40",0.0,27.4,71.9,997.9,319.4,1.2,3.3,223.4,0.17,21.9,23.3,"15:32:24",1
"18/05/18","15:50",0.0,27.4,72.4,997.9,333.4,1.2,3.1,353.6,0.15,22.0,23.2,"15:40:40",1
"18/05/18","16:00",0.0,28.4,69.8,997.7,264.2,0.8,2.9,352.9,0.26,22.4,23.3,"15:53:28",1
"18/05/18","16:10",0.0,28.0,69.2,998.2,231.3,0.8,2.4,178.4,0.22,21.9,23.2,"16:00:24",1
"18/05/18","16:20",0.0,28.0,69.4,998.4,272.3,0.8,2.0,331.7,0.19,21.9,23.3,"16:13:36",1
"18/05/18","16:30",0.0,27.6,68.7,998.4,273.1,1.2,3.4,342.5,0.15,21.4,23.2,"16:20:02",1
"18/05/18","16:40",0.0,27.7,68.8,997.9,225.4,2.0,3.6,222.9,0.16,21.5,23.4,"16:33:52",1
"18/05/18","16:50",0.0,27.4,69.3,997.7,244.2,1.0,2.9,201.6,0.09,21.3,23.3,"16:40:08",1
"18/05/18","17:00",0.0,27.5,68.4,997.0,280.7,1.0,2.6,230.3,0.07,21.2,23.0,"16:53:36",1
"18/05/18","17:10",0.0,27.3,69.3,997.0,299.8,1.0,1.9,350.0,0.06,21.2,23.2,"17:03:28",1
"18/05/18","17:20",0.0,27.1,70.1,997.7,294.3,1.0,2.0,337.4,0.04,21.2,23.2,"17:11:44",1
"18/05/18","17:30",0.0,27.0,70.6,997.4,269.3,1.0,2.5,238.3,0.03,21.2,23.1,"17:27:44",1
"18/05/18","17:40",0.0,26.8,70.4,997.4,260.0,1.2,4.9,230.7,0.03,21.0,22.9,"17:37:44",1
"18/05/18","17:50",0.0,26.6,71.0,997.4,257.4,1.5,3.4,235.3,0.01,20.9,23.1,"17:42:56",1
"18/05/18","18:00",0.0,26.5,71.4,997.7,252.6,1.3,2.5,235.7,0.01,20.9,23.2,"17:54:32",1
"18/05/18","18:10",0.0,26.4,72.0,997.7,249.5,1.0,2.8,229.6,0.00,21.0,23.0,"18:01:28",1
"18/05/18","18:20",0.0,26.1,73.2,997.4,302.3,1.0,1.3,331.5,0.00,21.0,22.8,"18:12:32",1
"18/05/18","18:30",0.0,26.0,73.7,997.7,319.0,1.2,2.8,330.9,0.00,21.0,22.9,"18:27:52",1
"18/05/18","18:40",0.0,25.9,73.6,997.4,317.5,1.1,2.1,329.3,0.00,20.9,22.8,"18:39:44",1
"18/05/18","18:50",0.0,25.7,74.3,997.4,273.7,0.7,1.3,317.5,0.00,20.8,22.7,"18:40:40",1
"18/05/18","19:00",0.0,25.6,74.6,997.7,267.4,0.7,2.0,214.3,0.00,20.8,22.6,"18:56:16",1
"18/05/18","19:10",0.0,25.5,74.6,997.7,308.1,1.1,2.4,339.1,0.00,20.7,22.5,"19:06:40",1
"18/05/18","19:20",0.0,25.5,74.9,997.7,339.4,0.8,2.5,318.4,0.00,20.8,22.3,"19:10:56",1
"18/05/18","19:30",0.0,25.3,75.3,997.9,272.0,1.1,3.3,221.1,0.00,20.7,22.4,"19:27:20",1
"18/05/18","19:40",0.0,25.4,74.7,997.4,257.6,1.3,2.9,233.4,0.00,20.6,22.3,"19:37:36",1
"18/05/18","19:50",0.0,25.4,74.8,997.9,255.4,1.3,3.4,232.6,0.00,20.6,22.2,"19:48:56",1
"18/05/18","20:00",0.0,25.3,74.6,997.9,283.3,1.0,2.5,306.9,0.00,20.5,22.2,"19:53:28",1
"18/05/18","20:10",0.0,25.2,75.2,997.9,212.4,0.8,2.7,317.6,0.00,20.5,22.2,"20:01:36",1
"18/05/18","20:20",0.0,25.2,75.5,997.9,348.0,1.0,1.7,315.5,0.00,20.6,22.0,"20:15:44",1
"18/05/18","20:30",0.0,25.0,76.3,998.2,264.0,1.0,3.2,232.4,0.00,20.6,21.8,"20:26:16",1
"18/05/18","20:40",0.2,24.5,78.4,998.2,283.1,1.1,2.8,277.5,0.00,20.5,21.8,"20:38:24",1
"18/05/18","20:50",0.0,24.0,81.1,998.2,285.2,1.3,3.2,282.1,0.00,20.6,22.0,"20:42:24",1
"18/05/18","21:00",0.0,23.5,83.4,998.2,284.2,1.2,2.8,319.9,0.00,20.6,21.8,"20:54:40",1
"18/05/18","21:10",0.2,23.3,84.8,998.4,279.3,1.5,3.1,230.8,0.00,20.6,21.8,"21:02:00",1
"18/05/18","21:20",0.2,23.0,86.1,998.2,293.4,0.8,2.1,355.5,0.00,20.6,21.6,"21:17:44",1
"18/05/18","21:30",0.2,22.9,87.0,999.1,296.0,1.1,3.3,253.8,0.00,20.7,21.6,"21:28:48",1
"18/05/18","21:40",0.2,22.7,87.5,998.6,304.9,0.8,1.9,336.9,0.00,20.6,21.6,"21:31:52",1
"18/05/18","21:50",0.2,22.6,88.0,998.6,323.4,0.5,1.2,328.7,0.00,20.6,21.6,"21:40:08",1
"18/05/18","22:00",0.2,22.5,88.8,998.6,329.5,1.3,2.5,355.5,0.00,20.6,21.5,"21:54:16",1
"18/05/18","22:10",0.0,22.5,89.7,999.1,307.9,0.7,1.2,332.8,0.00,20.8,21.5,"22:04:32",1
"18/05/18","22:20",0.0,22.3,90.3,998.9,295.5,0.6,1.3,338.2,0.00,20.7,21.5,"22:17:04",1
"18/05/18","22:30",0.4,22.2,90.8,998.9,342.5,1.2,2.2,326.7,0.00,20.7,21.3,"22:23:36",1
"18/05/18","22:40",0.6,21.9,91.4,998.6,348.9,0.6,1.4,2.5,0.00,20.5,21.3,"22:39:44",1
"18/05/18","22:50",0.6,21.9,91.9,998.2,357.3,1.0,1.7,33.3,0.00,20.6,21.2,"22:41:52",1
"18/05/18","23:00",0.6,21.9,92.2,998.6,324.3,0.8,1.9,324.6,0.00,20.6,21.3,"22:56:32",1
"18/05/18","23:10",0.6,21.8,92.6,998.2,239.9,0.5,1.3,340.5,0.00,20.6,21.3,"23:00:08",1
"18/05/18","23:20",0.6,21.8,93.0,998.9,310.4,0.7,1.4,332.0,0.00,20.7,21.2,"23:10:56",1
"18/05/18","23:30",1.0,21.9,93.3,998.4,286.9,0.6,1.9,358.9,0.00,20.8,21.3,"23:25:20",1
"18/05/18","23:40",0.4,21.8,93.6,998.2,32.8,0.5,1.2,346.4,0.00,20.8,21.0,"23:33:12",1
"18/05/18","23:50",0.4,21.8,93.5,998.4,69.7,1.1,3.4,346.6,0.00,20.7,21.1,"23:48:40",1
"18/05/18","24:00",5.6,21.7,94.0,998.4,322.7,1.3,4.0,344.0,0.00,20.7,21.1,"23:50:40",1
